Cosmos 2082 - Orbit

View from above orbital plane
View from above orbital plane
View from above satellite
View from above satellite

Ground track
Ground track

The orbit data is extracted from the following two-line orbital elements,

1 20624U 90046A   13137.87900244 -.00000142  00000-0 -50005-4 0  6497
2 20624 071.0399 095.4946 0013719 148.6281 243.7608 14.13993083186379
Epoch (UTC): 17 May 2013 21:05:45
Eccentricity: 0.0013719
inclination: 71.0399°
perigee height: 836 km
apogee height: 855 km
right ascension of ascending node: 95.4946°
argument of perigee: 148.6281°
revolutions per day: 14.13993083
mean anomaly at epoch: 243.7608°
orbit number at epoch: 18637

The dashed part of the orbit path shows where the satellite is in the earth's shadow,  

Developed and maintained by Chris Peat, Heavens-Above GmbH. Please read the updated FAQ before sending e-mail. Imprint. DLR